Theta_e
330 331 330 329 331 332 331 332 334 334 335 335 335 334 334 334 334 333 332 331 332 333 333 333 333 333 332 333 333 332 331 330 330 330 329 329 328 327 326 327 329 328 326 327 326 325 326 326 327 327 326 327 327 327 327 327 328 328 327 327 326 326 326
331 330 330 329 330 331 331 333 333 332 334 335 335 334 333 333 333 332 332 331 332 332 332 333 333 330 331 333 333 332 331 330 330 331 330 330 329 328 327 327 329 327 325 326 325 324 324 325 327 327 326 327 327 326 326 327 327 327 327 327 326 326 325
330 330 330 329 330 331 332 333 332 332 333 334 334 334 333 333 333 333 332 332 332 331 332 333 331 329 331 333 333 332 332 331 331 331 331 330 330 329 328 328 328 327 325 325 325 324 324 325 327 327 326 326 327 326 326 327 327 327 326 326 326 326 325
330 330 330 329 331 332 333 332 330 331 332 333 333 334 333 333 333 333 332 332 332 331 332 332 329 330 333 333 333 333 332 332 331 331 331 330 330 330 329 329 329 328 327 326 325 325 325 325 326 326 326 326 327 326 326 327 326 327 327 326 326 326 325
330 330 331 331 331 332 333 332 330 330 330 330 333 334 333 333 333 333 333 333 332 331 332 332 330 331 334 333 333 334 333 332 332 331 331 330 330 330 329 329 329 329 329 328 327 325 325 325 325 326 325 325 326 325 325 327 326 326 327 326 326 326 325
330 330 331 331 331 331 332 333 332 331 330 330 332 333 333 333 333 333 333 333 332 331 331 332 331 331 332 333 333 334 333 333 332 331 331 331 330 330 330 330 329 329 329 328 327 326 325 325 324 325 325 325 325 325 325 327 326 326 326 326 326 326 326
329 331 331 331 331 331 332 332 332 331 330 330 332 333 333 333 333 333 333 333 333 331 331 332 331 330 331 333 333 333 333 333 333 332 331 331 331 331 331 330 330 329 329 329 327 326 326 325 324 325 325 324 325 325 325 326 326 326 326 325 326 326 326
329 331 332 332 331 331 331 331 331 331 330 330 331 332 332 333 333 333 333 333 332 331 331 332 332 330 331 333 333 333 333 333 332 332 332 331 331 331 331 331 330 330 329 329 328 326 326 326 325 324 324 324 325 324 325 325 324 325 326 324 325 325 325
329 330 331 332 331 331 331 331 331 331 329 329 330 331 331 331 332 333 333 333 333 332 332 333 333 332 331 332 333 333 333 333 333 332 332 332 332 331 331 331 330 330 330 329 328 327 327 326 326 325 324 324 325 325 325 324 322 323 325 324 324 325 324
329 329 329 331 331 331 331 330 330 330 329 330 330 331 331 331 331 331 332 333 333 332 333 333 333 332 331 333 333 333 333 333 332 332 332 332 331 331 331 331 330 330 330 329 329 328 327 327 326 325 324 324 325 325 325 325 323 321 323 324 324 324 324
328 329 329 329 330 330 330 330 328 328 330 331 330 331 331 331 332 331 330 331 332 333 333 333 333 333 332 333 333 333 333 333 332 332 332 331 331 331 331 331 330 330 330 330 329 329 328 328 327 326 325 325 325 324 324 325 324 321 321 323 324 324 324
328 328 328 329 329 330 331 330 329 328 329 331 331 331 331 331 332 332 331 330 331 333 334 333 333 333 333 333 333 332 332 332 332 332 331 331 331 331 331 331 331 330 330 329 330 329 329 329 328 327 326 325 325 325 324 324 325 324 321 322 323 324 323
328 328 329 329 329 329 330 330 330 329 330 330 331 331 331 331 332 331 331 331 330 332 334 334 334 333 333 333 333 332 331 331 331 331 331 331 331 331 330 330 330 329 329 329 329 329 329 330 329 328 327 326 325 325 323 323 324 322 320 321 321 322 322
328 328 329 329 328 329 329 329 330 330 330 331 331 331 331 331 331 331 331 331 330 329 332 334 333 333 333 332 332 332 331 331 331 331 331 331 331 330 330 330 329 329 329 329 329 329 330 329 329 328 327 326 325 325 324 323 322 319 317 318 318 318 320
328 328 328 328 328 329 329 329 330 330 331 331 331 331 331 330 330 331 332 332 330 329 330 332 332 332 332 331 331 331 331 331 331 331 331 331 331 330 330 331 330 330 329 329 329 330 330 329 328 328 327 326 326 325 324 323 323 319 316 316 316 316 317
327 328 328 328 328 329 329 330 330 330 331 331 330 330 331 330 331 331 332 331 330 329 330 331 331 331 330 330 331 331 331 331 332 332 332 331 331 331 331 331 330 330 330 329 329 329 329 329 329 329 329 327 326 325 324 323 323 322 318 316 315 315 316
326 328 329 329 329 329 329 330 330 330 330 331 330 330 330 330 331 331 332 331 330 329 329 330 331 331 330 330 331 330 331 331 332 332 332 331 331 331 331 331 330 331 330 330 330 329 329 329 329 330 329 328 327 326 325 324 323 323 321 318 315 315 314
323 325 327 329 330 330 330 329 329 329 329 330 330 330 330 330 330 331 331 330 329 329 329 330 331 331 331 331 331 331 331 332 332 332 331 331 331 331 331 331 330 330 330 330 330 329 329 329 329 329 329 329 328 326 325 325 324 323 322 320 318 315 313
321 323 324 327 329 330 330 329 328 328 328 328 329 330 329 330 330 331 331 329 328 329 329 330 330 330 330 330 330 331 331 331 331 331 331 330 331 330 331 331 330 330 330 330 330 330 330 329 329 328 329 329 328 326 325 325 324 323 323 321 319 316 314
319 321 323 325 327 328 329 329 328 328 328 328 328 329 329 329 330 330 329 327 327 328 329 329 330 329 329 329 329 329 329 329 330 330 330 330 330 330 330 330 330 329 329 329 329 330 330 329 329 329 329 329 328 326 326 325 325 324 323 322 319 316 314
318 319 322 325 325 327 328 328 327 327 328 327 328 329 329 329 330 330 328 327 327 328 328 329 329 328 328 328 328 327 327 328 329 330 330 330 330 330 329 330 329 329 328 329 329 329 329 329 329 329 329 328 328 327 326 326 325 325 324 322 318 314 312
316 318 321 324 325 326 327 327 327 327 327 327 327 328 329 329 330 329 327 327 327 328 328 329 328 328 328 328 327 327 327 328 329 329 330 330 330 329 329 329 329 328 327 328 328 328 329 329 329 328 328 327 328 327 326 325 325 324 322 319 315 312 310
313 316 319 322 324 325 326 327 327 327 327 327 327 328 328 328 329 328 327 327 328 328 329 329 328 327 327 327 326 326 326 327 328 328 329 329 328 328 327 327 327 327 327 327 327 327 328 328 328 327 327 326 327 327 326 325 324 323 320 314 310 309 308
310 313 317 320 323 324 326 327 326 326 326 326 327 327 327 328 328 326 327 327 328 328 329 328 328 326 326 326 326 326 325 326 326 326 327 327 326 325 326 326 326 325 325 326 326 326 327 327 327 327 326 326 327 327 326 325 323 322 319 312 309 310 310
308 311 314 318 320 323 325 326 326 326 326 326 326 326 326 327 327 326 326 327 328 328 328 328 326 325 325 325 325 325 324 324 324 324 324 325 324 324 325 325 324 324 325 325 325 325 326 326 326 325 325 325 325 325 325 324 323 322 321 315 313 316 315
306 309 312 315 318 321 324 325 326 325 325 325 325 325 325 326 326 325 326 327 327 328 327 326 324 324 324 324 324 324 323 322 323 323 323 323 323 324 324 323 323 324 324 324 324 324 324 324 323 323 324 323 324 324 324 324 323 322 322 320 319 317 314
305 306 309 312 315 318 320 323 324 324 324 323 323 323 324 324 324 324 325 326 327 327 326 324 323 323 324 323 323 322 321 321 322 322 323 323 323 324 323 323 323 323 321 320 320 320 320 320 319 319 319 319 319 319 319 320 320 319 318 318 316 314 311
304 305 306 308 310 312 314 316 317 318 319 321 320 320 320 321 322 323 323 324 325 324 323 323 322 322 322 321 321 321 321 321 321 322 323 323 323 323 323 323 323 322 319 317 315 316 316 316 315 314 314 314 313 314 314 314 315 315 313 312 312 313 313
303 304 305 305 305 306 307 308 309 310 311 315 316 315 315 316 317 318 319 321 321 321 320 321 320 320 320 320 320 320 320 321 321 322 322 322 322 322 323 324 323 322 320 317 314 313 314 314 314 314 313 312 312 312 311 310 310 312 312 311 311 312 311
303 303 303 303 302 303 303 303 304 304 305 307 308 308 308 308 309 310 312 315 317 318 318 319 319 318 319 319 319 319 320 320 320 320 320 320 320 320 321 321 322 320 319 318 316 314 314 315 315 315 314 311 310 310 307 305 306 307 308 309 308 307 307
303 302 302 302 301 301 301 301 301 301 301 302 302 303 304 304 304 305 307 309 312 315 317 317 317 316 316 318 318 319 319 318 318 317 317 316 316 317 317 317 318 317 316 317 316 315 315 315 315 316 315 312 310 307 304 304 305 305 305 306 306 306 306
303 302 302 301 301 301 300 300 300 300 300 300 300 302 303 303 303 304 305 306 307 310 312 314 314 314 314 316 317 318 317 317 315 314 313 313 313 313 313 314 315 315 316 316 316 315 315 315 315 315 315 313 309 305 303 304 305 305 305 305 305 305 305
302 302 302 301 301 301 301 300 300 300 300 299 300 301 302 302 302 303 305 306 306 306 307 309 310 311 312 314 315 315 316 315 313 310 309 309 309 308 309 310 310 311 312 313 313 312 311 311 312 311 311 310 307 303 303 304 305 305 305 304 304 303 303
303 302 302 302 301 301 301 301 301 300 300 299 300 301 300 300 301 301 302 304 304 304 304 305 306 308 309 311 312 313 313 313 311 309 306 304 304 303 303 304 304 304 305 306 306 306 305 305 306 306 306 306 305 303 303 304 304 304 303 303 302 302 302
303 302 302 302 302 301 301 301 301 301 301 299 299 299 300 299 300 300 300 301 301 301 302 303 304 305 306 307 308 310 310 308 307 308 305 302 301 301 301 301 301 301 301 302 302 302 302 302 302 302 303 303 304 303 304 304 304 303 303 302 302 302 301
303 303 302 302 302 302 301 301 301 301 301 300 299 298 299 299 299 299 299 300 300 300 300 301 302 302 303 304 305 306 306 304 304 305 304 301 301 301 301 301 301 302 302 302 302 302 302 302 302 303 303 304 304 304 304 304 303 303 303 302 302 301 300
302 303 303 302 302 302 301 301 301 300 300 300 299 298 298 298 298 298 299 299 299 300 300 300 300 300 300 300 301 302 303 303 303 303 303 301 301 301 301 301 301 302 302 302 302 303 303 304 305 305 304 305 305 304 304 303 303 303 302 302 301 301 300
Wind_Speed
19 20 19 18 21 22 23 24 24 25 26 24 24 26 26 25 24 24 23 22 23 24 23 23 23 24 24 23 24 25 24 23 22 22 22 22 23 19 14 9 2 5 12 11 9 8 5 3 4 4 5 5 7 7 8 8 7 7 6 5 6 5 3
21 22 17 15 18 20 22 24 23 22 23 23 24 26 27 27 26 25 23 23 23 24 24 24 25 24 23 24 24 25 24 23 22 22 22 24 25 23 19 13 5 9 11 7 9 11 6 4 4 4 6 6 6 7 7 7 7 7 6 5 6 5 3
21 23 18 14 16 17 19 20 19 20 22 24 25 26 27 27 26 25 23 23 23 23 23 24 26 26 25 24 25 25 24 23 22 22 22 23 24 24 22 17 11 13 10 6 10 11 6 4 4 5 8 7 6 7 8 8 7 7 7 6 6 5 4
22 19 16 15 16 16 17 18 18 21 22 23 24 25 26 26 25 25 24 24 23 23 24 26 28 27 25 24 24 24 24 22 21 22 22 21 22 23 21 19 16 14 11 8 13 16 10 7 6 6 9 9 7 7 8 8 8 8 7 6 7 6 5
21 17 15 17 18 18 19 19 19 20 20 22 25 25 25 25 24 25 25 25 23 24 26 27 27 25 23 23 25 25 24 23 21 22 23 22 21 22 21 20 18 16 13 11 13 17 15 12 11 8 9 10 7 6 9 9 9 9 8 7 8 8 7
16 14 14 17 19 20 21 21 22 22 23 25 28 27 25 24 24 25 25 25 24 24 26 27 26 24 23 23 24 24 24 23 22 22 24 23 21 20 19 20 19 16 14 12 12 14 15 13 12 9 9 10 7 6 8 10 10 9 9 8 8 8 9
14 12 13 17 20 20 20 21 23 23 24 26 28 27 25 24 24 24 25 26 25 24 26 27 26 24 24 24 24 24 23 22 22 22 23 23 20 18 17 18 19 17 15 13 12 13 14 14 13 13 11 8 7 7 7 10 11 9 9 10 10 10 10
13 11 12 16 19 20 21 21 22 23 22 22 24 23 22 23 25 25 25 26 26 25 26 27 25 24 26 24 22 23 22 21 22 22 22 21 19 18 16 16 18 17 16 14 14 13 14 14 14 16 16 10 5 5 5 7 10 11 11 12 12 12 11
15 14 14 17 19 20 21 21 21 20 19 19 20 18 19 21 23 24 25 26 26 24 25 25 23 23 25 23 22 22 21 21 22 21 20 20 19 17 16 16 17 18 17 16 16 14 13 14 14 16 18 15 9 4 4 6 7 10 13 13 13 13 12
18 18 17 17 17 17 18 18 18 15 14 17 18 16 16 19 21 23 24 25 25 24 25 24 21 22 24 22 21 22 21 21 21 20 19 19 18 16 15 15 16 17 17 17 17 15 13 14 15 15 16 18 15 8 5 5 6 9 13 14 14 13 14
18 18 17 16 16 17 18 17 16 16 15 15 16 15 16 18 20 22 23 24 24 23 23 23 22 22 23 21 21 22 21 21 21 20 19 18 17 15 15 16 16 16 16 16 16 15 14 14 15 16 15 18 19 14 9 6 6 11 15 16 17 15 13
16 18 18 19 20 21 20 17 16 18 18 17 16 16 16 18 20 21 21 23 24 23 21 22 22 21 21 22 22 21 20 20 19 19 19 18 17 15 15 16 16 16 15 14 15 15 15 14 14 16 16 17 20 19 15 9 3 9 16 17 17 17 14
17 17 19 20 21 23 23 22 21 20 19 19 19 17 17 18 19 21 21 21 24 23 22 21 20 20 21 22 22 20 19 18 18 18 18 17 16 15 15 15 15 15 14 14 14 14 15 14 14 16 16 18 20 19 17 13 5 5 14 17 15 16 16
16 16 18 20 20 22 25 25 23 20 19 20 20 18 17 17 18 20 22 22 22 22 22 22 20 20 22 22 21 19 19 18 17 18 18 18 17 16 15 15 14 15 14 13 14 14 14 14 14 15 16 18 21 20 18 16 9 5 10 15 14 15 17
15 17 19 20 19 21 23 24 23 22 20 20 20 19 18 16 18 20 22 22 22 19 20 20 20 21 22 21 21 20 19 18 18 19 19 19 18 17 16 16 15 14 14 14 14 14 14 13 13 15 17 18 21 22 20 18 14 8 8 13 15 15 16
14 17 19 20 20 22 23 23 24 23 21 21 22 20 19 18 20 22 22 22 22 19 19 20 20 20 21 21 21 21 20 19 19 20 21 20 19 18 17 16 15 14 14 14 14 14 14 14 14 14 16 18 20 21 21 19 16 13 11 12 15 16 17
14 16 18 18 20 22 23 24 23 22 21 21 22 21 20 20 21 22 23 23 22 20 21 22 21 21 21 21 21 21 20 19 20 21 21 20 19 18 17 16 15 15 15 15 15 15 15 15 15 15 15 17 19 21 22 21 19 16 13 13 14 15 17
14 14 15 18 20 21 23 25 24 22 21 21 22 22 21 22 23 24 24 23 22 21 21 23 23 22 22 22 21 21 20 20 20 20 20 19 18 17 17 16 15 15 16 16 16 16 16 16 15 15 16 16 18 20 21 22 20 18 16 15 14 14 15
17 15 13 14 19 22 23 24 24 23 22 22 23 23 24 23 24 25 25 23 22 21 22 24 24 23 23 22 21 21 20 20 20 20 19 19 17 16 15 15 14 15 17 17 17 17 16 16 16 15 16 16 17 19 20 21 20 20 19 18 16 14 15
21 17 13 12 16 21 25 25 24 23 23 23 23 24 25 24 24 25 25 24 23 22 23 25 24 23 22 21 21 20 18 19 19 19 19 18 16 15 15 14 14 15 16 16 16 17 16 17 17 16 15 16 17 19 20 20 19 18 19 18 16 15 15
21 19 14 13 15 20 24 26 24 23 24 25 25 25 25 25 25 25 24 23 22 22 24 25 23 22 22 22 21 19 18 18 18 18 18 17 16 16 14 14 14 14 14 14 14 15 17 17 17 16 16 17 18 20 22 21 19 18 18 18 17 15 14
22 20 16 14 16 20 24 25 23 24 26 27 26 26 26 27 26 25 25 24 22 23 25 26 23 22 23 23 21 19 18 18 17 17 17 16 16 16 15 14 14 13 13 12 12 13 14 14 15 15 16 16 17 19 20 21 21 19 18 18 17 16 14
24 22 18 15 17 20 24 25 24 26 27 28 29 28 28 28 28 27 27 25 24 25 27 26 24 23 23 23 22 20 19 17 17 16 17 17 16 15 14 13 13 12 11 11 11 11 10 11 12 13 13 14 16 17 19 20 21 20 20 19 17 14 14
27 24 20 17 17 21 23 25 26 28 28 29 30 30 30 30 30 29 29 27 26 27 28 26 25 24 23 22 21 20 19 18 17 17 17 17 16 14 13 12 11 10 9 9 9 10 9 10 10 11 12 13 14 17 19 21 22 21 20 17 11 10 14
29 26 22 18 17 20 23 25 26 27 28 29 31 32 33 33 31 30 29 28 27 28 27 27 26 26 24 22 20 19 19 18 18 18 18 17 16 15 14 12 10 9 9 9 9 9 10 11 11 12 13 14 15 17 19 20 21 21 21 18 13 12 17
30 27 23 19 16 17 20 25 27 27 28 30 31 31 32 33 32 30 29 28 28 27 27 27 26 25 24 22 20 19 19 18 18 18 18 17 17 17 15 14 12 10 9 9 8 9 10 11 12 13 15 16 16 17 18 20 19 19 20 19 16 15 15
29 28 25 20 17 14 13 17 22 25 27 28 28 28 30 32 31 30 28 28 28 28 27 26 25 24 23 21 21 20 19 19 18 18 18 18 18 17 16 14 13 12 12 11 10 11 11 12 13 14 14 13 12 11 11 13 13 14 14 14 13 11 10
29 27 25 22 18 15 12 8 7 12 17 22 24 25 26 27 28 28 28 28 28 28 27 25 25 24 23 22 21 21 20 20 19 19 19 19 18 17 15 14 14 15 15 14 13 14 15 17 18 19 19 18 17 15 13 11 9 9 9 9 9 10 11
29 27 25 24 22 20 16 11 7 2 6 15 20 20 19 20 21 23 24 26 26 25 24 25 24 24 24 24 22 21 21 21 21 20 20 19 18 16 15 15 15 16 16 16 16 16 17 19 20 20 21 20 19 18 18 18 16 15 15 15 15 14 14
28 27 26 25 24 22 19 16 12 9 7 10 15 15 14 15 15 16 18 21 24 24 22 22 23 24 25 26 24 23 23 22 21 21 20 19 18 17 16 15 15 16 17 18 17 17 16 15 14 14 16 17 17 17 18 17 16 15 15 16 16 15 14
28 27 26 26 25 24 22 20 17 16 14 14 17 19 18 18 16 14 14 14 16 21 21 20 22 23 24 25 26 25 25 23 23 23 22 21 20 19 17 16 16 16 17 18 17 16 14 13 12 13 14 16 17 18 18 17 16 16 16 15 15 14 13
27 26 25 25 26 26 25 23 21 21 19 19 23 26 25 24 24 20 18 18 16 17 19 19 19 20 21 23 24 25 26 26 25 25 24 24 22 21 20 19 18 18 18 18 17 16 14 13 13 15 15 16 18 19 18 17 17 17 17 16 15 14 13
26 25 23 24 25 26 27 26 26 26 22 20 26 32 31 29 29 27 24 22 21 20 19 17 14 15 18 21 23 24 26 27 28 28 26 25 25 23 22 21 20 19 19 18 17 16 15 13 13 14 14 14 17 18 18 18 18 18 17 18 17 16 15
26 25 22 22 25 27 27 27 28 28 25 23 27 35 34 33 34 33 30 28 25 24 22 18 14 12 15 19 22 24 25 27 29 30 28 26 25 24 23 21 20 18 17 17 17 15 14 13 12 12 12 13 15 18 19 19 19 18 18 18 18 17 16
27 26 24 24 25 27 28 28 29 29 27 26 28 32 33 32 35 35 34 33 31 28 25 22 19 14 13 15 19 22 25 27 29 30 29 27 25 24 23 22 20 17 16 16 16 15 14 13 12 13 13 15 17 18 19 19 18 17 17 17 17 16 16
28 27 26 27 27 28 29 30 31 31 31 30 30 30 29 30 33 35 34 33 31 29 27 25 23 21 18 17 18 19 22 24 25 27 29 28 26 26 25 24 22 20 18 18 18 17 16 15 15 16 17 18 19 19 19 18 17 16 16 15 15 16 16
30 28 28 28 29 29 29 30 30 31 31 32 31 29 28 30 32 33 32 31 29 27 26 24 23 21 20 19 19 19 19 19 19 22 26 28 27 27 28 26 24 22 20 21 20 19 19 19 18 19 19 19 19 18 17 16 15 15 15 15 15 16 15
Wind_Direction
241 240 236 234 229 220 214 218 219 218 219 221 220 220 218 215 217 219 222 227 227 226 224 223 222 216 211 209 207 209 208 206 206 200 191 187 191 199 198 191 169 147 164 170 174 161 145 177 180 193 221 217 207 206 205 211 220 230 242 239 234 254 238
258 259 249 239 232 221 215 218 218 213 215 221 221 218 214 211 215 218 219 223 228 230 228 225 225 221 213 209 208 209 209 209 210 208 201 196 198 201 200 199 174 155 164 169 173 163 140 156 172 188 194 187 200 213 211 211 220 228 238 239 232 240 211
249 256 254 244 236 223 217 218 217 215 217 220 217 215 213 212 215 219 219 218 221 226 229 227 225 221 216 213 212 211 211 213 214 212 211 209 208 207 203 199 177 159 157 147 167 168 144 148 164 175 183 180 184 197 206 210 216 224 229 228 217 216 193
235 239 240 235 232 225 220 219 221 224 223 219 215 213 213 213 215 218 219 218 217 216 218 222 223 219 215 215 215 213 212 216 219 217 215 215 214 210 207 205 197 186 184 184 185 181 167 155 152 163 184 187 183 188 194 200 212 223 227 218 204 203 196
236 232 237 237 231 226 222 220 221 220 218 219 220 217 214 214 215 217 218 219 218 215 214 219 225 221 216 217 216 215 216 219 221 219 215 217 217 214 212 212 212 212 216 221 207 194 187 175 158 155 177 179 178 192 192 191 207 223 227 218 203 203 205
250 241 244 247 241 234 226 221 218 212 208 215 220 220 219 218 218 218 219 219 217 215 214 218 226 225 219 219 218 218 220 221 220 219 218 219 221 221 219 216 216 220 226 236 228 206 195 179 159 150 167 175 174 182 189 193 201 215 224 222 213 210 212
265 260 258 257 252 245 237 230 225 215 209 215 220 221 222 221 221 221 221 222 218 214 215 218 222 225 223 220 220 220 220 222 221 220 221 223 225 227 225 221 221 224 227 233 232 213 197 187 171 158 155 166 177 169 178 198 202 206 216 220 217 214 216
260 261 266 267 263 257 251 245 239 226 216 221 226 226 227 225 224 225 223 222 218 215 218 219 218 221 223 220 219 221 221 222 222 220 222 225 226 228 229 228 227 227 228 230 232 223 210 205 196 179 165 155 166 171 170 196 207 212 216 218 217 216 216
257 250 254 265 269 267 258 250 247 232 215 222 231 230 234 234 230 229 224 219 218 216 217 219 219 221 222 219 218 221 222 222 221 219 220 225 228 230 231 231 229 229 230 232 231 227 218 217 213 198 182 168 161 159 171 195 213 220 220 220 219 218 217
270 260 258 262 266 267 263 258 259 248 222 222 228 226 229 233 235 237 231 221 217 216 215 215 218 223 224 221 220 221 221 222 222 219 221 224 226 228 228 228 227 228 230 230 230 227 221 219 215 208 203 193 180 162 162 201 216 215 215 219 220 220 219
285 278 275 276 273 269 268 266 266 262 251 241 234 230 224 221 227 235 237 232 222 215 215 214 213 218 223 222 221 222 221 222 221 221 222 223 223 224 225 224 224 226 228 227 228 227 223 220 216 212 216 213 200 186 173 182 216 214 209 215 220 221 221
298 292 287 282 277 273 269 264 255 251 255 255 247 240 229 217 217 220 228 240 235 219 214 217 214 214 218 222 222 222 223 223 222 221 221 220 220 222 223 223 223 223 226 227 226 226 222 221 222 218 219 219 212 205 193 179 192 215 209 214 220 220 220
302 297 292 282 273 271 269 265 259 256 255 252 246 240 229 221 220 216 216 231 238 226 216 218 219 214 214 220 222 223 223 223 223 221 217 216 217 219 219 219 221 220 222 225 223 220 220 221 223 222 222 220 216 214 207 195 180 195 205 213 220 220 221
302 289 282 277 270 268 269 266 263 261 254 246 241 236 229 224 224 222 217 220 229 228 219 216 215 214 215 219 221 222 222 221 221 219 215 214 215 216 216 214 215 215 218 224 221 215 216 219 218 217 219 221 217 215 212 207 198 175 195 209 216 220 222
299 282 276 278 272 268 270 269 262 257 252 247 242 235 230 224 221 220 219 219 221 223 220 215 212 214 217 217 217 217 218 218 218 217 214 216 217 216 215 212 212 212 215 222 222 218 218 214 209 210 214 219 220 216 214 212 208 194 190 205 214 218 221
304 285 279 282 278 271 270 270 263 254 249 247 242 234 228 223 218 215 215 220 219 216 219 220 218 218 216 214 214 214 216 218 217 216 216 217 218 217 215 212 211 212 215 219 220 221 220 213 208 210 213 218 222 219 217 215 214 211 204 206 214 219 220
320 296 278 272 274 273 269 265 260 251 245 242 237 232 226 219 217 213 210 215 218 214 217 222 221 219 216 214 214 214 214 216 216 217 218 219 219 220 219 216 215 216 217 216 217 219 218 214 212 212 215 218 222 221 218 217 219 222 219 216 218 223 225
325 312 291 270 265 267 266 260 254 248 245 240 232 229 225 217 213 211 208 211 215 212 215 220 220 217 215 215 217 218 216 215 215 217 219 221 221 223 223 222 221 220 219 218 218 219 217 215 215 214 216 219 221 222 220 218 221 224 226 228 227 226 227
329 321 310 288 272 265 262 257 250 244 242 238 231 226 224 218 211 209 208 210 211 210 214 219 218 216 215 215 218 221 220 218 217 217 219 220 221 224 226 227 226 224 224 223 223 223 221 219 219 218 218 219 220 221 219 218 220 223 229 234 234 232 230
335 323 308 293 281 270 261 254 247 240 235 231 228 225 222 218 214 212 212 210 207 207 212 217 217 217 217 215 216 220 220 218 217 216 217 217 220 226 226 226 229 227 227 228 226 226 225 222 222 221 219 218 218 217 215 214 215 220 227 233 234 233 230
337 327 305 283 280 275 264 255 247 240 232 224 222 222 222 219 216 213 213 209 204 204 211 216 216 216 216 214 216 219 217 217 216 214 215 218 224 230 227 225 227 228 228 231 231 231 229 224 222 221 220 219 218 218 217 216 217 222 227 229 231 230 224
339 332 313 284 277 275 267 259 248 235 227 221 218 219 218 217 214 211 210 206 201 203 211 215 215 216 216 215 215 216 215 215 215 214 217 219 223 227 226 223 225 226 228 232 236 238 234 229 225 223 221 218 219 223 224 223 224 225 222 222 223 220 213
346 339 323 296 280 274 266 258 246 232 224 221 219 216 212 210 209 208 207 201 198 202 209 213 215 216 215 213 213 215 215 213 211 213 215 217 217 219 219 221 222 222 223 225 228 232 232 227 221 221 224 221 219 222 222 221 222 222 219 216 210 205 203
353 347 333 310 288 277 267 255 242 231 224 220 217 213 208 205 204 205 203 197 195 200 205 210 214 214 212 212 215 216 214 211 210 213 215 214 211 210 209 211 211 211 214 216 218 218 216 215 213 215 222 222 220 220 219 218 217 217 219 211 194 201 219
358 354 344 327 303 282 266 251 239 229 220 215 213 208 204 202 202 203 200 196 196 199 204 208 211 211 211 212 214 213 211 210 209 209 209 208 204 201 199 197 195 197 202 205 206 205 204 206 208 211 214 212 211 213 217 220 221 221 223 217 203 213 228
2 0 356 343 323 297 269 249 237 227 217 212 208 203 200 198 199 200 197 195 197 200 203 207 208 210 211 210 210 209 207 206 202 198 198 197 194 191 189 186 183 178 178 181 184 190 193 195 196 199 203 205 207 211 217 224 230 233 234 232 226 223 225
5 6 6 359 347 329 296 260 241 228 216 207 200 198 197 195 195 196 195 195 197 199 201 204 206 208 208 205 204 203 200 196 190 185 185 185 184 182 183 183 176 165 161 160 162 166 167 166 166 169 173 176 178 186 201 215 225 229 230 231 228 217 206
9 12 15 13 9 2 347 319 267 234 214 200 194 193 192 190 190 192 191 192 194 195 197 200 203 203 201 197 196 195 191 185 180 176 174 175 177 177 176 177 172 164 157 152 150 153 152 148 144 140 136 132 128 127 127 130 144 163 169 168 168 161 149
12 16 22 25 24 21 17 18 23 32 188 186 184 183 181 179 181 184 185 188 189 189 192 195 196 194 192 189 187 184 181 175 170 167 165 165 169 170 170 172 171 167 162 155 151 151 148 144 139 133 127 122 120 118 113 111 114 122 128 131 132 131 126
17 19 26 33 33 33 33 37 49 65 95 139 147 146 146 148 155 164 168 175 181 182 183 185 185 184 185 185 183 178 173 168 161 158 156 156 159 160 162 168 170 169 165 162 161 162 161 158 151 142 134 126 122 118 112 110 113 115 119 121 121 119 119
24 24 29 37 41 42 44 47 59 71 71 82 102 109 109 107 110 121 126 133 154 165 165 167 171 172 175 181 183 178 171 164 156 151 148 147 147 148 149 152 160 162 159 158 161 166 174 180 174 163 153 141 132 125 121 122 121 119 119 119 117 117 116
31 29 31 40 48 51 52 52 62 72 68 67 83 93 95 93 90 90 93 94 100 119 133 146 158 163 166 172 177 175 170 161 150 144 143 141 139 138 137 137 140 145 144 144 148 153 160 168 163 155 153 147 137 132 131 133 131 129 126 122 117 116 112
36 36 35 42 51 58 61 58 59 65 63 63 77 84 84 84 82 79 83 87 82 83 96 115 137 154 161 163 165 166 164 158 149 142 140 138 135 132 132 132 132 134 137 139 142 145 149 153 150 146 149 146 137 134 135 135 133 132 127 119 112 108 103
40 42 43 47 52 59 64 64 63 62 57 55 71 80 78 76 76 73 73 77 76 73 79 89 104 130 150 155 157 160 158 153 149 144 138 134 132 129 128 128 127 130 135 137 139 142 143 145 147 146 146 140 133 134 137 136 133 129 122 115 108 102 97
44 45 47 50 53 56 60 65 67 68 62 54 61 73 76 75 74 71 68 69 69 69 71 78 84 95 119 138 147 152 149 145 145 145 138 130 126 124 122 120 120 122 126 126 126 127 129 131 133 130 126 125 127 132 135 133 130 125 118 112 106 99 92
46 47 48 52 55 55 55 59 62 65 66 61 57 61 67 71 72 70 67 65 65 66 67 71 75 80 90 105 117 127 132 132 136 139 133 125 121 119 116 113 112 114 115 114 112 112 113 114 115 114 116 120 125 130 132 130 126 121 114 108 103 96 88
48 48 49 53 55 52 51 53 55 56 60 62 60 57 57 60 63 63 61 60 61 62 64 66 68 70 75 85 94 102 110 117 124 127 123 118 118 117 115 113 112 112 110 108 107 106 103 103 105 110 116 122 126 130 129 125 121 117 110 103 99 95 91